Regional Weather Roundup
Issued by NWS

Home | Current Version | Previous Version | Graphics & Text | Print | Product List | Glossary On
Versions: 1 2 3 4 5 6 7 8 9 10 11 12 13 14 15 16 17 18 19 20 21 22 23 24 25 26 27 28 29 30 31 32 33 34 35 36 37 38 39 40 41 42 43 44 45 46 47 48 49 50
000
ASUS43 KLOT 200806
RWRIL

ILLINOIS REGIONAL WEATHER ROUNDUP
NATIONAL WEATHER SERVICE CHICAGO/ROMEOVILLE IL
300 AM CDT MON OCT 20 2014

NOTE: "FAIR" INDICATES FEW OR NO CLOUDS BELOW 12,000 FEET WITH NO
SIGNIFICANT WEATHER AND/OR OBSTRUCTIONS TO VISIBILITY.

* THESE STATIONS ARE NOT UNDER NWS QUALITY CONTROL. THEY ALSO MAY NOT
  REPORT WEATHER SUCH AS PRECIPITATION OR FOG.

ILZ001-002-007-009-015-016-024-200900-
NORTHWEST ILLINOIS

CITY           SKY/WX    TMP DP  RH WIND       PRES   REMARKS
MOLINE         CLEAR     51  43  74 W8        29.86S
STERLING*      CLEAR     48  43  81 W7        29.85S
SAVANNA*       CLEAR     52  43  72 W3        29.84S
$$

ILZ003-004-008-010-011-017-018-200900-
NORTH CENTRAL ILLINOIS

CITY           SKY/WX    TMP DP  RH WIND       PRES   REMARKS
ROCKFORD       CLEAR     47  42  83 S7        29.85S
FREEPORT*      CLEAR     47  42  82 SW10      29.83F
ROCHELLE*      CLEAR     46  43  90 CALM      29.85S
DE KALB*       PTCLDY    44  42  91 SW8       29.84F
PERU*          CLEAR     52  45  76 SW10      29.87S
$$

ILZ005-006-012>014-019>023-200900-
NORTHEAST ILLINOIS

CITY           SKY/WX    TMP DP  RH WIND       PRES   REMARKS
CHICAGO-OHARE  PTCLDY    50  43  77 SW10      29.84F
CHICAGO-MIDWAY CLOUDY    51  45  79 SW10      29.85F
AURORA         PTCLDY    48  43  82 S8        29.85F
LANSING*       CLOUDY    49  44  82 SW9       29.88F
JOLIET*        MOCLDY    48  44  84 S6        29.87F
WAUKEGAN       PTCLDY    50  43  77 SW10      29.81F
DUPAGE AIRPORT PTCLDY    47  43  86 S8        29.84F
KANKAKEE*      MOCLDY    47  44  89 S8        29.90F
WHEELING       PTCLDY    52  44  74 S8        29.85F
MORRIS*        PTCLDY    49  46  88 SW7       29.86F
ROMEOVILLE*    MOCLDY    47  44  90 S5        29.87F
NORTHERLY ISL    N/A     51  43  74 SW8         N/A
$$

LMZ740>746-200900-
SOUTHERN LAKE MICHIGAN

STATION/POSITION SKY/WX   TEMP    WIND        PRES    VSBY  WAVE
                          AIR SEA DIR/SP/G                  HT/PER
                          (F)     (DEG/KT/KT) (MB)    (MI)  (FT/S)
SOUTHERN BUOY              55 55  220/ 19/ 25 1009.1F         4/ 6
WAUKEGAN HARBOR            53     240/ 15/ 20   N/A
HARRISON CRIB              52     210/ 26/ 31   N/A
BURNHAM HARBOR             51     200/  3/ 11   N/A
CALUMET HARBOR             51     200/ 12/ 17 1009.8F
MICHIGAN CITY              51     170/ 14/ 19   N/A
$$

ILZ025>027-034>036-040-047-049-050-058-095>099-200900-
WEST-CENTRAL ILLINOIS

CITY           SKY/WX    TMP DP  RH WIND       PRES   REMARKS
QUINCY         PTCLDY    53  47  79 SW8       29.93F
GALESBURG*     CLEAR     49  45  85 SW7       29.89S
MACOMB*        CLEAR     51  46  82 SW7       29.92F
JACKSONVILLE*  MOCLDY    54  47  77 SW9       29.94F
PITTSFIELD*    MOCLDY    55  48  77 SW9       29.96S
$$

ILZ028>032-037-038-041>044-048-051>054-059>061-200900-
CENTRAL ILLINOIS

CITY           SKY/WX    TMP DP  RH WIND       PRES   REMARKS
PONTIAC        PTCLDY    52  46  82 SW8       29.88F
BLOOMINGTON    MOCLDY    50  46  85 SW10      29.92F
DECATUR        CLOUDY    50  46  86 SW10      29.95F
PEORIA         CLEAR     50  44  80 SW7       29.90F
LACON*         CLEAR     52  45  78 SW6       29.87F
LINCOLN*       MOCLDY    50  45  84 S3        29.92F
SPRINGFIELD    MOCLDY    53  46  77 SW6       29.94F
TAYLORVILLE    CLOUDY    50  45  81 S7        29.96F
$$

ILZ033-039-045-046-055>057-062-063-200900-
EAST-CENTRAL ILLINOIS

CITY           SKY/WX    TMP DP  RH WIND       PRES   REMARKS
CHAMPAIGN      CLOUDY    47  44  90 S7        29.94F
DANVILLE*      CLOUDY    46  43  89 S7        29.92F
RANTOUL*       CLOUDY    50  44  79 S8        29.94F
MATTOON        CLOUDY    50  44  80 S8        29.96F
PARIS*         CLOUDY    50  46  84 S9        29.98F
$$

ILZ079-100>102-200900-
SOUTHWEST ILLINOIS

CITY           SKY/WX    TMP DP  RH WIND       PRES   REMARKS
ALTON          CLOUDY    56  47  71 SW8       29.99F
BELLEVILLE     CLOUDY    53  49  85 S6        30.00F
CAHOKIA*       CLOUDY    56  47  71 S5        29.99F
SPARTA*        MOCLDY    52  47  83 CALM      30.04S
$$

ILZ064>066-069>071-074>076-080>082-084>086-088>090-092>094-200900-
SOUTH-CENTRAL ILLINOIS

CITY           SKY/WX    TMP DP  RH WIND       PRES   REMARKS
CARBONDALE     CLOUDY    48  45  89 S3        30.05S
CAIRO*         PTCLDY    47  44  88 CALM      30.06S
EFFINGHAM*     CLOUDY    51  44  76 S5        30.00S
MARION         MOCLDY    48  46  93 S5        30.05F
MT. VERNON     CLOUDY    52  45  76 SW7       30.03F
CENTRALIA*     CLOUDY    52  47  82 SW7       30.01F
SALEM*         CLOUDY    55  50  82 S7        30.01F
METROPOLIS*    PTCLDY    46  46 100 CALM      30.06S FOG
$$

ILZ067-068-072-073-078-083-087-091-200900-
SOUTHEAST ILLINOIS

CITY           SKY/WX    TMP DP  RH WIND       PRES   REMARKS
LAWRENCEVILLE  MOCLDY    48  46  93 S6        30.03F
FLORA*         MOCLDY    51  46  84 SW7       30.02F
FAIRFIELD*     LGT RAIN  50  47  92 S3        30.03F
HARRISBURG*    CLOUDY    46  46 100 CALM      30.07S
ROBINSON*      CLOUDY    51  47  86 S6        30.02F
CARMI*         CLOUDY    49  48  97 S3        30.04F
$$

ABBREVIATIONS USED IN REMARKS
   TC - TEMPERATURE IN CELSIUS
  WCI - WIND CHILL INDEX
   HX - HEAT INDEX
  VSB - VISIBILITY
$$




USA.gov is the U.S. government's official web portal to all federal, state and local government web resources and services.